Home   Weather   Gonzales   Past weeks
Flag for USA

Past Weather in Gonzales, Louisiana, USA — Yesterday and Last 2 Weeks

Now
73 °F

Sunny.


Feels Like: 71 °F
Forecast: 92 / 74 °F
Wind: 6 mph from East

Location: Baton Rouge Metropolitan - Ryan Field

Current Time: Jun 26, 2019 at 7:28:49 am

Latest Report: Jun 26, 2019 at 6:53 am


Visibility: 10 mi

Pressure: 30.14 "Hg

Humidity: 90%

Dew Point: 70 °F

Location of GonzalesLocation

Past Weather in Gonzales — Graph

°F

Gonzales Temperature Yesterday

Maximum temperature yesterday: 90 °F (at 1:53 pm)
Minimum temperature yesterday: 73 °F (at 12:53 am)
Average temperature yesterday: 79 °F

High & Low Weather Summary for the Past Weeks

 TemperatureHumidityPressure
High94 °F (Jun 20, 3:53 pm)97% (Jun 16, 5:53 am)30.14 "Hg (Jun 16, 5:53 am)
Low64 °F (Jun 14, 3:53 am)35% (Jun 13, 5:53 pm)29.79 "Hg (Jun 19, 7:53 pm)
Average81 °F75%29.97 "Hg
* Reported Jun 11 5:53 am — Jun 26 5:53 am, Gonzales. Weather by CustomWeather, © 2019

Note: Actual official high and low records may vary slightly from our data, if they occured in-between our weather recording intervals... More about our weather records

Advertising

Gonzales Weather History for the Previous 24 Hours

Scroll right to see more
 ConditionsComfort  
Time TempWeatherWind HumidityBarometerVisibility
5:53 am
Wed, Jun 26
73 °FClear.5 mph90%30.12 "Hg10 mi
4:53 am72 °FClear.5 mph93%30.11 "Hg10 mi
3:53 am72 °FClear.5 mph93%30.10 "Hg10 mi
2:53 am73 °FClear.6 mph90%30.10 "Hg10 mi
1:53 am74 °FClear.6 mph91%30.10 "Hg10 mi
12:53 am74 °FClear.3 mph91%30.11 "Hg10 mi
11:53 pm
Tue, Jun 25
75 °FClear.No wind90%30.13 "Hg10 mi
10:53 pm75 °FClear.3 mph88%30.14 "Hg10 mi
9:53 pm76 °FPassing clouds.No wind85%30.11 "Hg10 mi
8:53 pm75 °FClear.No wind88%30.10 "Hg10 mi
7:53 pm77 °FSunny.5 mph79%30.09 "Hg10 mi
6:53 pm78 °FSunny.6 mph76%30.07 "Hg10 mi
5:53 pm79 °FSunny.9 mph77%30.06 "Hg10 mi
5:11 pm80 °FThundershowers. Sunny.No wind67%30.06 "Hg10 mi
4:53 pm79 °FThundershowers. Partly sunny.5 mph72%30.06 "Hg10 mi
3:53 pm79 °FThundershowers. Partly sunny.10 mph74%30.06 "Hg10 mi
3:34 pm85 °FThundershowers. Partly sunny.16 mph72%30.05 "Hg10 mi
2:53 pm89 °FPartly sunny.7 mph63%30.05 "Hg10 mi
1:53 pm90 °FSunny.13 mph57%30.05 "Hg10 mi
12:53 pm88 °FSunny.7 mph67%30.06 "Hg10 mi
11:53 am87 °FPassing clouds.9 mph72%30.06 "Hg10 mi
10:53 am87 °FPassing clouds.8 mph69%30.06 "Hg10 mi
10:11 am86 °FPassing clouds.6 mph72%30.05 "Hg10 mi
9:53 am86 °FPartly sunny.10 mph75%30.04 "Hg10 mi
8:55 am82 °FPartly sunny.No wind85%30.06 "Hg10 mi
7:53 am77 °FScattered clouds.3 mph90%30.03 "Hg10 mi
7:08 am75 °FBroken clouds.5 mph94%30.03 "Hg10 mi
Weather by CustomWeather, © 2019

See weather overview